Precipitable_Water
1.64 1.68 1.77 1.81 1.86 1.82 1.81 1.85 1.88 1.78 1.75 1.66 1.49 1.61 1.63 1.57 1.63 1.66 1.58 1.52 1.49 1.57 1.55 1.48 1.49 1.51 1.55 1.53 1.55 1.64 1.74 1.79 1.74 1.69 1.74 1.80 1.83 1.84 1.88 1.58 1.54 1.56 1.54
1.71 1.67 1.74 1.84 1.86 1.84 1.85 1.92 1.91 1.81 1.72 1.54 1.48 1.59 1.56 1.64 1.68 1.68 1.77 1.70 1.63 1.62 1.52 1.60 1.70 1.58 1.60 1.59 1.57 1.67 1.74 1.76 1.81 1.75 1.79 1.81 1.89 1.85 1.71 1.56 1.59 1.63 1.56
1.68 1.67 1.74 1.81 1.85 1.84 1.89 1.83 1.73 1.64 1.59 1.53 1.64 1.69 1.66 1.73 1.77 1.80 1.83 1.82 1.73 1.84 1.78 1.62 1.76 1.74 1.66 1.63 1.66 1.77 1.82 1.91 2.07 2.05 1.82 1.75 1.83 1.78 1.63 1.71 1.65 1.57 1.51
1.68 1.70 1.73 1.77 1.79 1.78 1.73 1.66 1.61 1.62 1.63 1.69 1.76 1.77 1.81 1.85 1.90 1.83 1.80 1.76 1.72 1.75 1.78 1.83 1.73 1.70 1.73 1.70 1.67 1.74 1.88 2.00 2.09 1.99 1.75 1.72 1.78 1.75 1.83 1.66 1.53 1.45 1.55
1.68 1.68 1.72 1.69 1.67 1.55 1.45 1.48 1.61 1.71 1.68 1.78 1.77 1.77 1.82 1.77 1.67 1.63 1.63 1.58 1.64 1.74 1.79 1.73 1.66 1.60 1.66 1.73 1.70 1.81 1.90 2.05 2.12 1.95 1.79 1.74 1.81 1.79 1.74 1.63 1.54 1.60 1.45
1.69 1.65 1.70 1.66 1.50 1.52 1.70 1.77 1.78 1.82 1.81 1.80 1.78 1.78 1.76 1.61 1.55 1.57 1.50 1.72 1.82 1.81 1.81 1.78 1.70 1.53 1.53 1.59 1.63 1.86 1.98 2.14 2.06 1.91 1.91 1.84 1.81 1.78 1.62 1.54 1.62 1.53 1.60
1.67 1.57 1.56 1.45 1.54 1.66 1.66 1.80 1.84 1.80 1.80 1.80 1.75 1.75 1.56 1.49 1.49 1.52 1.60 1.75 1.85 1.99 1.84 1.62 1.47 1.42 1.47 1.54 1.68 1.79 2.11 2.05 1.85 1.90 1.77 1.75 1.71 1.62 1.65 1.57 1.64 1.60 1.67
1.52 1.38 1.44 1.53 1.61 1.60 1.73 1.77 1.78 1.78 1.78 1.77 1.67 1.56 1.44 1.47 1.41 1.50 1.62 1.70 1.82 1.92 1.67 1.53 1.40 1.31 1.51 1.70 1.71 1.85 1.92 1.90 1.91 1.78 1.63 1.70 1.76 1.69 1.63 1.64 1.64 1.67 1.49
1.44 1.26 1.38 1.50 1.55 1.59 1.68 1.75 1.74 1.74 1.72 1.62 1.56 1.36 1.36 1.35 1.39 1.49 1.58 1.67 1.77 1.84 1.63 1.52 1.42 1.37 1.50 1.66 1.73 1.83 1.91 1.90 1.76 1.58 1.58 1.70 1.71 1.66 1.64 1.57 1.51 1.57 1.62
1.57 1.26 1.33 1.48 1.54 1.53 1.65 1.70 1.72 1.71 1.60 1.55 1.36 1.33 1.38 1.45 1.48 1.58 1.65 1.69 1.73 1.78 1.74 1.59 1.45 1.43 1.59 1.67 1.84 1.88 1.93 1.89 1.72 1.58 1.55 1.66 1.64 1.65 1.62 1.61 1.68 1.72 1.65
1.50 1.29 1.32 1.33 1.45 1.52 1.66 1.65 1.67 1.65 1.55 1.47 1.44 1.67 1.53 1.51 1.56 1.63 1.63 1.66 1.69 1.71 1.73 1.63 1.53 1.56 1.62 1.63 1.77 2.12 1.94 1.78 1.69 1.47 1.52 1.60 1.58 1.56 1.49 1.44 1.48 1.63 1.62
1.34 1.22 1.24 1.33 1.42 1.51 1.56 1.57 1.59 1.59 1.61 1.59 1.66 1.94 1.73 1.66 1.57 1.48 1.52 1.61 1.70 1.77 1.89 1.86 1.84 1.69 1.64 1.69 1.75 1.99 1.82 1.79 1.62 1.40 1.47 1.51 1.46 1.45 1.47 1.43 1.40 1.48 1.50
1.30 1.29 1.23 1.32 1.42 1.47 1.42 1.52 1.61 1.58 1.50 1.69 1.74 1.85 1.82 1.75 1.63 1.67 1.58 1.90 1.61 1.68 1.77 1.85 1.78 1.67 1.66 1.72 1.74 1.77 1.75 1.80 1.52 1.39 1.44 1.43 1.38 1.35 1.41 1.41 1.40 1.51 1.48
1.24 1.28 1.43 1.45 1.44 1.60 1.51 1.54 1.71 1.56 1.56 1.77 1.82 1.83 1.86 1.81 1.72 1.82 1.85 1.76 1.71 1.60 1.66 1.55 1.46 1.54 1.85 1.78 1.87 1.75 1.86 1.72 1.68 1.59 1.46 1.41 1.35 1.35 1.38 1.39 1.38 1.40 1.40
1.25 1.34 1.45 1.48 1.46 1.61 1.64 1.72 1.73 1.54 1.62 1.62 1.74 1.85 1.73 1.68 1.73 2.01 1.88 1.91 1.91 1.78 1.77 1.53 1.43 1.41 1.63 1.71 1.77 1.71 1.77 1.70 1.58 1.58 1.54 1.42 1.49 1.47 1.50 1.31 1.30 1.30 1.39
1.34 1.39 1.59 1.46 1.59 1.55 1.65 1.82 1.73 1.74 1.69 1.75 1.74 1.75 1.88 1.87 1.92 1.84 1.84 1.86 1.75 1.64 1.60 1.50 1.61 1.81 1.47 1.64 1.72 1.74 1.64 1.63 1.61 1.65 1.70 1.67 1.62 1.55 1.49 1.43 1.30 1.33 1.45
1.32 1.36 1.42 1.38 1.44 1.71 1.80 1.76 1.55 1.70 1.81 1.65 1.71 1.76 1.95 1.99 1.96 1.85 1.74 1.93 1.73 1.63 1.53 1.47 1.47 1.49 1.48 1.61 1.58 1.63 1.67 1.66 1.73 1.70 1.68 1.63 1.68 1.68 1.59 1.49 1.41 1.40 1.35
1.38 1.33 1.51 1.46 1.54 1.70 1.74 1.87 1.56 1.70 1.70 1.77 1.73 1.87 1.94 1.89 1.94 1.94 1.72 1.67 1.59 1.62 1.47 1.38 1.38 1.42 1.41 1.45 1.47 1.54 1.57 1.61 1.69 1.66 1.69 1.60 1.57 1.57 1.59 1.52 1.48 1.44 1.44
1.34 1.29 1.29 1.36 1.59 1.62 1.55 1.46 1.49 1.65 1.68 1.82 1.77 1.88 1.83 1.84 1.92 1.97 1.76 1.87 1.68 1.68 1.44 1.34 1.32 1.40 1.33 1.32 1.29 1.35 1.44 1.48 1.48 1.51 1.49 1.50 1.42 1.43 1.41 1.47 1.48 1.46 1.43
1.28 1.26 1.30 1.30 1.43 1.51 1.48 1.44 1.71 1.53 1.69 1.82 1.77 1.82 1.72 1.89 2.00 1.82 1.70 1.69 1.81 1.69 1.43 1.34 1.36 1.31 1.40 1.31 1.24 1.41 1.28 1.25 1.32 1.34 1.38 1.41 1.40 1.38 1.42 1.31 1.40 1.41 1.41
1.24 1.20 1.26 1.29 1.41 1.40 1.30 1.35 1.52 1.46 1.62 1.68 1.75 1.95 1.69 1.85 1.93 1.87 1.59 1.61 1.65 1.59 1.31 1.52 1.32 1.28 1.28 1.37 1.16 1.15 1.16 1.34 1.32 1.30 1.35 1.33 1.39 1.41 1.45 1.39 1.29 1.35 1.39
1.19 1.20 1.17 1.24 1.41 1.44 1.37 1.39 1.44 1.59 1.58 1.66 1.79 1.80 1.74 1.72 1.74 1.80 1.69 1.79 1.67 1.43 1.35 1.32 1.37 1.31 1.28 1.21 1.00 1.09 0.90 1.05 1.20 1.31 1.33 1.28 1.33 1.40 1.37 1.38 1.39 1.30 1.36
1.19 1.20 1.16 1.18 1.35 1.40 1.40 1.46 1.55 1.50 1.59 1.61 1.77 1.70 1.70 1.71 1.65 1.84 1.79 1.76 1.60 1.47 1.34 1.35 1.30 1.29 1.05 1.19 1.17 1.14 0.91 0.92 1.14 1.31 1.28 1.25 1.29 1.25 1.33 1.38 1.42 1.42 1.40
1.17 1.23 1.20 1.14 1.33 1.40 1.39 1.37 1.43 1.41 1.33 1.47 1.59 1.57 1.67 1.59 1.55 1.88 1.75 1.73 1.62 1.62 1.41 1.39 1.49 1.40 1.29 1.19 1.23 1.34 1.30 1.24 0.97 0.95 1.25 1.28 1.21 1.24 1.34 1.34 1.37 1.39 1.40
1.20 1.15 1.18 1.12 1.24 1.36 1.37 1.30 1.37 1.45 1.47 1.50 1.47 1.72 1.57 1.64 1.65 1.62 1.70 1.66 1.59 1.63 1.51 1.40 1.54 1.57 1.43 1.34 1.23 1.24 1.19 1.28 1.28 1.17 1.03 1.10 1.22 1.27 1.32 1.29 1.30 1.31 1.33
1.25 1.20 1.18 1.14 1.06 1.27 1.30 1.25 1.27 1.33 1.39 1.41 1.35 1.46 1.59 1.65 1.62 1.61 1.74 1.66 1.60 1.70 1.57 1.48 1.49 1.49 1.47 1.44 1.38 1.31 1.25 1.29 1.18 1.23 1.15 1.13 1.13 1.21 1.31 1.31 1.29 1.34 1.36
Wind_Speed
15 16 16 15 15 15 15 14 14 14 13 12 11 11 11 10 9 8 8 7 7 6 6 6 6 6 7 7 7 8 8 9 10 10 12 13 13 13 14 14 14 15 15
17 16 15 15 14 15 14 13 13 13 12 11 11 11 11 10 9 9 9 8 7 7 7 7 7 7 7 8 8 9 9 10 10 11 12 13 14 14 14 14 15 15 15
16 16 15 14 14 14 14 14 14 13 12 12 12 11 11 10 10 10 9 8 8 7 7 7 7 8 8 8 9 9 10 11 12 13 13 13 13 14 14 14 15 15 15
17 15 15 14 14 14 14 14 13 13 12 12 12 11 11 11 11 10 9 8 8 7 7 7 8 9 9 10 10 11 11 12 12 12 13 13 13 13 14 14 14 15 15
16 15 14 14 14 14 14 13 13 12 12 12 12 12 11 11 11 11 11 10 10 11 11 10 9 9 10 11 12 12 12 13 15 14 13 13 13 13 13 14 14 14 15
16 15 15 15 14 14 14 13 12 12 13 12 12 12 12 11 12 12 13 14 14 15 14 13 10 10 12 13 14 14 13 13 15 14 13 13 13 13 13 13 13 14 14
16 15 15 15 14 14 13 13 13 13 13 12 12 12 11 12 12 13 15 16 16 15 15 15 15 15 15 16 16 15 16 15 14 13 12 12 12 12 12 13 13 13 13
16 15 15 15 14 14 13 13 13 13 13 12 12 11 12 12 13 14 15 16 16 16 16 17 18 18 18 18 17 17 15 15 14 12 12 11 12 12 13 13 13 13 12
16 15 15 15 14 14 13 13 13 13 13 12 12 12 13 13 14 14 15 15 15 16 16 17 17 18 17 17 16 15 15 13 14 13 12 12 12 12 12 12 13 13 13
15 15 15 15 14 14 14 13 14 13 13 12 12 13 14 14 14 14 15 15 15 15 15 15 16 16 16 15 15 14 14 14 13 12 12 12 12 12 12 12 12 13 14
15 15 15 15 15 15 14 14 14 13 13 12 13 13 13 14 14 14 14 15 15 15 15 15 15 15 15 14 13 12 13 13 12 12 12 12 12 12 12 11 12 13 14
16 16 16 16 15 15 14 15 14 14 13 12 12 11 11 11 13 13 14 14 14 14 13 13 13 12 12 11 10 10 11 12 13 13 13 13 13 12 12 11 11 12 13
16 17 17 16 16 15 14 15 14 13 12 11 10 9 9 10 11 11 11 10 11 10 12 12 12 12 12 11 10 10 12 12 13 13 13 13 12 12 11 11 11 11 12
17 18 17 16 17 15 15 14 14 13 11 10 9 9 8 9 8 9 9 10 9 10 11 11 12 11 12 12 12 13 13 12 12 12 13 13 12 12 12 11 11 11 11
19 20 18 17 16 16 14 13 12 12 12 11 10 8 9 8 8 7 7 7 8 8 9 9 11 11 10 10 10 12 12 11 11 12 13 12 12 12 12 12 11 11 11
20 20 18 17 15 17 14 14 12 13 10 11 8 8 8 8 7 7 7 6 7 7 8 9 10 10 10 11 11 11 10 10 11 12 12 12 11 11 11 11 10 10 10
19 19 19 17 17 16 13 13 12 13 12 10 10 9 8 7 7 8 7 6 7 8 9 10 9 8 10 9 11 9 10 10 10 10 10 10 10 10 10 10 9 9 9
20 20 18 18 18 16 14 14 14 14 12 11 10 9 8 8 8 7 8 8 9 9 9 10 9 11 10 10 10 10 10 9 9 8 9 10 9 9 9 9 9 9 9
21 20 19 18 19 18 15 14 15 12 12 11 9 9 9 8 8 7 8 9 10 9 8 8 9 9 10 10 10 10 9 8 8 9 9 8 9 9 9 8 9 9 9
21 21 19 19 19 19 16 15 14 12 11 10 10 10 9 8 8 9 8 8 7 8 8 9 9 8 8 9 9 8 8 8 8 7 7 7 8 8 9 10 9 9 10
22 22 21 20 20 19 17 17 14 14 12 12 11 10 8 8 8 8 8 9 8 8 7 8 8 7 7 8 8 8 7 6 6 6 5 6 7 8 9 10 10 11 12
23 23 22 22 21 20 18 17 15 14 12 11 11 10 9 9 9 9 9 8 7 7 7 8 7 7 7 7 7 6 5 5 4 5 6 7 7 8 9 11 12 13 12
24 24 23 24 23 21 19 19 15 15 13 12 12 11 10 9 8 9 8 8 8 7 7 8 8 6 6 6 5 6 6 7 7 8 9 9 8 9 10 10 11 12 13
25 25 24 25 25 22 22 20 17 15 14 13 13 12 10 10 9 8 8 7 7 7 7 7 7 7 6 6 6 6 7 8 9 9 9 9 10 10 10 10 11 11 12
26 26 25 26 26 24 23 22 19 17 15 15 14 14 12 11 9 8 8 7 6 6 7 7 6 6 6 6 6 7 8 9 8 9 9 9 10 10 10 11 10 10 10
26 26 26 26 27 26 25 23 22 19 17 15 15 14 14 11 9 8 8 7 7 7 6 7 7 7 7 7 7 7 9 8 10 9 8 9 10 10 10 10 9 9 8
Wind_Direction
139 135 131 127 124 122 119 117 118 118 114 109 105 103 100 95 90 87 85 84 85 85 83 87 93 97 98 100 100 100 97 98 96 92 89 86 81 82 77 75 75 76 76
138 136 134 129 127 125 121 117 117 119 114 109 104 101 96 90 84 84 82 81 82 81 83 90 94 99 103 103 101 101 100 102 100 99 93 89 85 83 79 77 78 77 78
141 138 136 131 130 127 123 119 117 115 112 108 104 98 94 88 83 80 77 75 76 78 85 90 96 100 104 105 106 103 103 104 103 100 95 92 88 83 80 81 80 79 79
143 141 137 134 132 128 125 122 118 115 111 108 104 98 91 86 80 74 71 70 75 82 88 96 97 102 104 105 107 106 107 110 107 103 96 94 89 84 83 82 81 80 80
144 143 140 136 134 130 127 124 120 116 113 110 104 98 91 84 77 71 69 72 80 84 89 94 99 104 109 110 108 108 107 108 105 103 96 94 90 86 84 82 82 81 81
143 142 140 139 137 133 128 126 122 119 116 111 104 98 90 83 77 74 74 79 85 87 87 87 89 106 111 111 111 107 105 111 104 100 94 93 91 87 84 83 83 82 81
141 140 140 139 138 135 131 127 124 121 117 111 105 98 90 82 81 80 82 83 87 88 88 84 86 103 108 109 109 108 104 103 102 98 94 91 90 88 86 85 83 81 80
143 142 141 141 139 136 132 129 126 123 118 113 107 98 91 87 86 85 86 86 86 88 88 88 90 99 106 107 105 103 105 101 95 93 91 89 91 91 89 87 83 81 76
144 145 143 143 141 138 134 131 129 126 120 115 107 99 94 92 89 88 89 89 88 88 91 92 93 98 104 106 104 103 99 98 89 88 88 91 93 93 90 86 84 80 77
150 150 148 147 144 142 138 134 132 129 123 116 108 103 98 93 90 91 90 89 90 91 90 93 95 99 104 104 102 99 95 98 86 82 87 93 95 92 90 89 84 81 78
154 155 152 151 149 145 141 138 135 132 127 120 114 105 102 96 92 91 92 91 91 92 92 93 95 100 102 102 101 86 103 91 81 82 87 94 95 93 90 89 86 82 80
157 160 157 154 152 149 146 143 139 134 127 123 120 112 104 103 95 94 94 91 94 93 92 95 92 98 103 100 99 97 104 93 82 82 89 94 95 91 90 88 90 85 83
164 161 158 156 155 150 148 146 142 140 131 127 124 119 115 109 106 96 97 91 98 98 89 88 90 110 99 97 95 104 104 98 86 84 89 93 92 91 90 89 89 87 85
166 161 160 158 158 155 152 150 148 143 137 132 128 121 117 123 116 104 108 93 93 99 97 93 95 96 100 89 107 103 108 96 87 85 90 91 90 90 89 89 88 87 84
161 161 161 160 158 161 158 157 154 152 144 130 125 122 119 116 124 117 113 103 91 104 104 101 100 100 97 93 98 106 104 94 91 90 92 91 90 88 87 86 85 85 84
163 166 168 167 163 161 158 159 152 156 157 145 133 126 127 117 114 113 114 110 110 104 109 108 107 101 96 98 103 105 102 100 99 95 91 89 87 86 86 83 82 82 81
170 169 169 170 168 164 164 172 162 150 152 150 140 131 134 118 113 109 110 104 108 105 106 108 101 115 102 101 105 102 106 105 104 98 93 89 87 84 82 80 79 77 75
172 171 172 171 169 168 158 158 156 150 149 147 143 138 134 125 118 113 113 106 112 106 113 113 102 109 109 106 103 104 103 105 106 100 100 87 90 84 77 74 77 75 73
177 175 175 176 176 173 167 162 160 157 150 148 145 138 134 125 126 132 115 117 115 111 109 120 115 110 110 113 106 109 104 100 104 101 101 90 87 84 73 78 79 77 73
183 182 179 178 178 176 173 165 163 164 160 157 150 142 138 132 122 121 125 121 119 125 110 117 119 113 120 122 113 112 106 99 101 106 99 98 86 83 76 76 83 81 78
186 185 183 180 179 179 176 175 172 171 165 160 157 153 144 140 131 128 129 126 124 116 123 122 126 120 122 118 115 111 114 113 94 100 105 102 97 88 86 81 82 86 86
189 188 187 186 183 182 181 179 177 174 172 170 164 159 150 141 134 127 126 129 124 128 121 133 125 117 123 127 122 110 108 97 108 95 107 111 102 103 95 91 88 88 91
192 192 191 189 188 186 184 181 178 175 174 172 170 165 159 150 141 136 132 127 126 121 128 124 129 118 123 127 124 120 113 112 101 105 104 109 103 108 106 100 96 93 91
196 195 194 192 190 189 188 187 186 182 180 178 176 171 165 158 148 140 137 132 130 125 123 136 133 123 122 128 125 116 115 119 111 102 105 106 108 107 109 106 104 101 93
198 198 196 195 194 193 191 192 190 187 183 181 179 175 171 164 158 153 145 139 138 122 128 133 132 128 121 123 135 129 123 121 119 111 111 110 108 110 109 104 110 108 97
200 199 199 198 198 198 197 196 195 191 187 182 183 180 179 175 169 166 161 150 147 141 134 134 137 131 124 123 124 133 133 125 121 115 110 123 118 111 113 108 109 104 97